Wind_Speed
13 13 12 12 11 11 10 10 9 9 8 8 8 8 8 8 8 8 8 9 9 9 9 9 10 10 10 11 11 11 12 13 13 14 14 14 15 15 15 15 14 15 15
15 14 13 13 13 12 11 11 11 10 10 10 10 10 10 10 10 10 10 10 11 11 11 11 11 11 12 12 12 13 13 14 14 15 15 15 15 15 16 16 16 16 16
16 15 14 14 13 13 12 12 11 11 11 11 11 11 11 11 11 11 11 11 12 12 12 12 12 13 13 14 14 14 15 15 15 15 16 16 16 16 16 16 16 16 17
17 16 15 15 14 14 13 13 13 12 12 12 12 12 12 12 12 12 12 13 13 13 13 14 14 14 14 15 15 15 15 16 16 16 16 16 16 16 16 16 17 18 18
18 18 17 16 15 15 15 14 14 14 14 13 13 13 13 13 13 13 14 14 14 14 14 15 15 15 15 15 15 15 16 16 16 17 17 17 17 18 18 18 19 19 19
20 19 19 18 17 16 16 16 15 15 15 14 14 14 14 14 14 15 15 15 15 15 15 15 15 15 15 15 16 16 17 17 18 18 18 18 18 19 19 19 19 20 21
22 21 20 19 18 17 17 17 17 16 16 15 15 15 15 15 15 16 16 15 16 16 16 16 16 16 16 16 17 18 18 18 18 18 18 19 19 19 20 20 21 22 22
24 23 22 20 20 19 18 18 18 18 17 16 16 16 16 16 17 17 17 16 16 16 16 16 16 17 17 17 18 19 19 19 19 19 19 20 20 20 21 22 23 24 24
25 24 23 22 21 20 20 19 19 19 18 18 17 17 17 17 18 17 17 17 17 17 18 18 18 18 19 19 19 20 20 20 20 20 21 21 22 22 23 24 25 25 26
27 26 24 23 22 22 21 21 20 20 19 19 19 18 18 18 18 18 18 18 18 19 19 19 19 20 20 20 20 21 21 21 22 22 23 23 24 24 25 26 26 27 27
28 27 26 25 24 23 22 22 21 21 21 20 20 20 19 19 19 19 19 19 19 20 20 20 20 21 21 21 21 22 23 23 23 24 24 25 26 26 27 27 28 28 29
29 28 27 26 26 25 24 23 22 22 22 21 21 21 21 20 20 20 20 20 20 21 21 21 21 22 22 22 23 23 24 24 25 26 26 27 27 28 29 29 29 30 30
31 30 29 28 27 26 25 24 23 23 22 22 22 22 22 22 21 21 21 21 22 22 22 22 22 22 23 24 24 24 25 25 26 27 28 28 29 30 30 30 30 31 32
32 31 30 29 28 27 26 25 25 24 23 23 23 23 23 23 23 23 22 23 23 23 23 23 23 24 25 25 25 25 26 27 28 28 29 30 30 31 31 31 32 33 34
33 32 31 30 29 28 28 27 26 25 25 24 24 24 24 24 24 24 24 24 24 23 23 23 24 25 25 26 26 27 27 28 29 30 30 31 32 32 32 33 34 35 36
35 34 32 32 31 30 29 28 27 27 26 26 26 25 25 25 25 25 25 24 24 24 24 24 25 25 26 26 27 28 29 30 30 31 31 32 33 33 33 34 36 37 38
36 35 34 33 32 31 30 29 29 28 27 27 26 26 26 26 26 26 25 25 25 25 26 26 26 27 27 28 29 30 31 31 32 32 33 33 34 35 35 36 37 38 39
37 36 35 35 34 32 32 31 30 29 28 28 27 27 27 27 27 26 26 26 26 26 26 27 28 28 29 30 31 32 32 33 33 33 34 34 35 36 37 39 39 40 41
38 37 37 36 35 34 33 33 32 30 30 29 29 28 28 28 28 28 27 28 28 27 28 28 29 30 31 32 32 33 33 34 34 35 36 36 37 38 39 40 41 42 43
39 38 38 37 36 35 34 34 33 32 31 31 30 29 30 29 29 29 29 29 28 29 29 30 31 32 32 33 33 33 34 35 36 37 38 39 39 40 41 42 42 43 45
40 39 39 38 37 36 36 35 34 33 32 31 30 30 30 30 30 30 30 30 30 31 31 32 33 33 33 33 34 34 35 36 37 38 39 40 41 42 42 43 43 44 45
41 40 40 39 38 37 37 36 35 34 33 32 31 30 30 30 30 30 31 31 32 33 33 33 34 34 34 35 36 36 37 37 38 39 40 41 42 42 43 44 45 46 46
41 41 40 40 39 38 37 37 36 35 34 33 32 31 31 30 30 31 32 32 33 34 34 35 35 35 36 36 38 39 39 40 39 39 40 41 42 43 44 45 47 47 47
42 41 41 41 40 39 38 37 36 35 34 33 33 33 32 32 32 32 33 34 34 35 35 36 36 37 37 38 39 41 41 41 41 40 41 42 43 44 46 47 48 48 49
42 41 41 41 40 39 39 37 37 36 35 35 35 34 34 33 34 34 34 35 35 36 37 37 37 38 39 40 41 42 42 42 43 44 43 43 44 46 48 49 49 50 50
42 41 41 41 40 40 39 38 38 37 36 36 36 36 36 35 35 36 36 36 36 37 37 38 38 39 40 41 42 42 43 44 45 45 46 46 46 47 49 50 51 51 51
Wind_Direction
235 236 238 239 240 244 247 250 251 252 255 258 263 271 277 283 286 288 291 294 296 299 302 304 307 308 308 308 307 307 308 307 307 307 308 308 307 307 307 306 306 306 306
237 237 239 242 242 244 248 250 254 256 258 261 265 270 275 280 284 287 289 292 296 299 300 302 304 305 306 305 305 306 307 307 307 306 306 305 305 305 305 305 306 305 305
237 237 239 242 243 246 249 252 255 258 260 263 266 270 273 278 282 286 289 291 295 298 299 300 301 301 303 304 303 304 304 305 305 305 305 304 304 305 304 305 305 304 305
235 236 239 242 245 248 251 254 256 259 263 265 267 270 273 277 280 284 288 289 293 296 297 299 299 300 301 301 302 302 303 304 304 304 304 304 304 304 304 304 304 305 305
235 236 239 242 246 249 252 256 258 260 263 265 267 269 272 276 280 283 286 288 290 292 294 296 298 298 298 299 300 302 304 304 303 303 303 302 303 302 302 302 303 304 304
236 238 241 244 247 250 252 254 258 260 263 266 268 270 272 275 278 282 284 286 288 290 292 294 296 296 295 296 298 300 301 302 302 302 301 301 301 301 302 302 303 303 303
237 240 243 245 247 250 252 254 257 260 262 264 268 271 273 275 279 281 282 284 286 288 290 291 292 294 294 295 297 298 299 300 301 301 300 301 301 301 301 302 302 302 301
238 240 243 245 248 250 253 254 256 259 261 264 267 270 273 276 278 280 281 283 284 286 289 290 291 292 292 293 295 296 298 299 299 300 300 300 300 299 300 300 301 301 300
238 240 242 244 247 251 254 255 256 258 261 264 267 270 272 275 277 278 280 281 283 285 288 289 290 291 291 292 294 295 296 297 298 298 298 299 298 298 298 298 299 299 299
238 240 242 244 247 250 253 254 255 258 261 264 267 269 272 274 276 277 278 281 283 286 288 288 289 290 291 291 292 294 296 297 298 298 298 298 297 297 298 298 298 298 298
239 240 242 244 247 249 252 254 255 258 260 264 266 269 271 273 276 277 278 281 284 287 287 288 289 290 291 291 292 294 295 296 297 298 298 298 298 298 299 299 299 298 297
239 241 243 245 247 249 251 253 255 258 260 263 266 268 270 272 275 277 278 281 284 287 288 288 289 290 291 292 293 294 295 295 297 297 297 298 298 298 299 298 298 298 298
240 242 244 245 246 249 251 253 256 258 260 263 265 268 270 272 273 275 278 281 284 286 287 288 289 290 291 293 293 294 294 295 296 296 296 297 298 298 298 297 298 298 298
240 242 244 245 247 249 251 253 255 257 260 263 266 268 269 271 272 274 277 280 283 285 286 287 288 291 292 292 293 293 295 296 296 297 297 298 298 298 298 298 298 298 298
241 242 244 245 247 249 251 253 255 257 260 263 266 268 270 271 272 274 277 279 282 284 286 288 289 292 293 293 294 295 296 297 298 297 298 298 299 299 299 299 298 298 298
242 243 244 246 247 248 250 252 255 257 260 264 267 269 270 271 272 274 276 279 281 283 285 288 289 291 293 294 296 297 298 298 299 299 299 299 299 299 300 300 299 299 299
242 243 244 245 247 248 250 253 254 257 260 263 266 268 270 271 273 274 275 278 281 283 285 288 289 291 293 295 296 297 297 298 299 299 300 300 300 300 300 300 300 300 300
241 243 244 245 247 248 250 252 254 256 259 262 264 266 268 271 271 272 274 277 280 283 286 288 288 290 293 294 295 296 297 297 298 299 300 301 301 301 301 300 300 300 300
241 242 244 245 247 248 250 251 253 256 258 261 263 265 267 269 271 272 275 278 281 284 286 287 289 291 292 293 294 296 296 297 298 299 300 301 301 302 302 302 301 301 301
240 241 243 245 247 248 249 251 253 255 257 260 262 265 267 269 271 274 276 278 281 283 285 288 289 291 292 293 294 295 297 298 299 299 299 300 301 302 302 302 302 302 302
240 241 243 245 246 248 249 251 252 254 257 259 262 264 266 268 271 274 276 279 281 284 286 288 289 291 292 292 294 295 296 298 299 299 299 300 301 302 302 302 302 303 303
240 242 243 244 246 247 248 250 252 254 256 259 262 264 266 268 271 274 276 279 282 285 287 288 289 290 292 293 294 295 296 297 298 299 300 301 302 302 302 303 303 303 304
239 241 243 244 245 247 248 250 251 253 256 259 260 262 265 268 271 274 277 279 282 285 287 288 289 290 292 293 295 296 297 297 297 299 300 301 302 303 303 303 303 303 303
239 240 242 243 244 246 247 249 252 253 255 257 260 261 264 267 270 274 277 279 282 285 287 289 290 291 292 293 295 297 298 299 299 299 300 301 302 303 304 304 304 304 304
239 240 242 243 244 245 247 249 251 253 255 257 259 262 265 268 271 274 277 280 282 285 287 289 290 291 293 294 295 297 298 299 300 300 300 301 302 303 304 304 304 304 304
239 240 241 242 243 245 246 248 251 254 256 258 260 263 265 269 272 274 276 279 283 285 286 288 289 291 292 294 296 297 298 299 300 300 300 301 301 303 304 304 304 304 304
Height
5863 5864 5866 5867 5868 5869 5870 5871 5871 5872 5872 5872 5873 5873 5873 5873 5873 5873 5873 5873 5873 5872 5872 5872 5871 5871 5871 5870 5870 5869 5868 5868 5867 5866 5866 5865 5864 5863 5862 5861 5861 5860 5859
5861 5862 5864 5865 5866 5867 5868 5869 5870 5870 5871 5871 5871 5872 5872 5872 5872 5872 5872 5872 5871 5871 5871 5871 5870 5870 5869 5869 5868 5867 5867 5866 5865 5865 5864 5863 5862 5861 5860 5859 5858 5857 5856
5859 5860 5862 5863 5864 5865 5866 5867 5868 5869 5869 5869 5870 5870 5870 5870 5870 5870 5870 5870 5870 5870 5869 5869 5868 5868 5867 5867 5866 5865 5865 5864 5863 5862 5862 5861 5860 5859 5858 5857 5856 5855 5854
5856 5858 5859 5861 5862 5863 5864 5865 5866 5867 5867 5868 5868 5868 5868 5869 5869 5869 5869 5868 5868 5868 5868 5867 5866 5866 5865 5865 5864 5864 5863 5862 5861 5860 5859 5859 5857 5856 5855 5854 5853 5852 5851
5853 5855 5857 5858 5860 5861 5862 5863 5864 5864 5865 5865 5866 5866 5866 5867 5867 5867 5867 5866 5866 5866 5866 5865 5864 5864 5863 5863 5862 5861 5861 5860 5859 5858 5857 5856 5855 5854 5853 5851 5850 5849 5848
5850 5852 5854 5855 5857 5858 5860 5861 5861 5862 5863 5863 5864 5864 5864 5864 5865 5865 5864 5864 5864 5864 5863 5863 5862 5862 5861 5860 5860 5859 5858 5857 5856 5855 5854 5853 5852 5851 5850 5848 5847 5846 5845
5847 5849 5851 5852 5854 5855 5857 5858 5859 5859 5860 5861 5861 5862 5862 5862 5862 5862 5862 5862 5862 5861 5861 5860 5860 5859 5859 5858 5857 5856 5855 5854 5853 5852 5851 5850 5849 5848 5847 5845 5844 5842 5841
5843 5845 5847 5849 5851 5852 5854 5855 5856 5857 5857 5858 5859 5859 5859 5859 5859 5859 5859 5859 5859 5859 5858 5858 5857 5857 5856 5855 5854 5853 5852 5851 5850 5849 5848 5847 5846 5844 5843 5842 5840 5839 5837
5839 5842 5843 5845 5847 5849 5850 5851 5852 5853 5854 5855 5856 5856 5856 5857 5857 5857 5856 5856 5856 5856 5855 5855 5854 5853 5853 5852 5851 5850 5849 5848 5847 5846 5845 5843 5842 5841 5839 5837 5836 5834 5832
5835 5838 5840 5842 5843 5845 5846 5848 5849 5850 5851 5852 5853 5853 5853 5854 5854 5854 5853 5853 5853 5853 5852 5852 5851 5850 5849 5848 5848 5847 5846 5845 5843 5842 5841 5839 5838 5836 5834 5833 5831 5829 5827
5831 5833 5835 5838 5839 5841 5842 5844 5845 5846 5848 5848 5849 5850 5850 5850 5851 5851 5850 5850 5850 5849 5849 5848 5847 5847 5846 5845 5844 5843 5842 5841 5840 5838 5836 5835 5833 5831 5830 5828 5826 5824 5822
5826 5829 5831 5833 5835 5837 5838 5840 5841 5843 5844 5845 5845 5846 5847 5847 5847 5847 5847 5847 5847 5846 5845 5844 5844 5843 5842 5841 5840 5839 5838 5837 5835 5834 5832 5830 5828 5826 5824 5822 5820 5818 5816
5821 5824 5826 5828 5830 5832 5834 5836 5837 5838 5840 5841 5841 5842 5843 5843 5843 5843 5844 5843 5843 5842 5841 5840 5840 5839 5838 5837 5836 5835 5834 5832 5831 5829 5827 5825 5823 5821 5819 5816 5814 5812 5809
5816 5818 5821 5823 5826 5828 5829 5831 5833 5834 5835 5836 5837 5838 5838 5839 5839 5839 5840 5839 5839 5838 5837 5837 5836 5835 5834 5833 5832 5830 5829 5827 5826 5824 5822 5820 5817 5815 5813 5810 5807 5805 5803
5810 5813 5816 5818 5821 5823 5825 5827 5828 5830 5831 5832 5833 5834 5834 5834 5835 5835 5835 5835 5834 5834 5833 5832 5831 5830 5829 5828 5827 5825 5824 5822 5820 5818 5816 5814 5811 5809 5806 5803 5801 5798 5795
5804 5807 5810 5813 5815 5818 5820 5822 5823 5825 5826 5827 5828 5829 5829 5830 5830 5831 5830 5830 5830 5829 5828 5828 5827 5826 5825 5823 5822 5820 5818 5816 5814 5812 5810 5807 5805 5802 5799 5796 5793 5790 5787
5798 5801 5804 5807 5809 5812 5814 5816 5818 5819 5821 5822 5823 5824 5824 5825 5825 5825 5825 5825 5825 5824 5824 5823 5822 5821 5819 5818 5816 5814 5812 5810 5808 5806 5803 5800 5798 5795 5792 5789 5786 5782 5779
5792 5795 5798 5801 5803 5806 5809 5811 5812 5814 5816 5817 5818 5819 5819 5820 5820 5820 5820 5820 5820 5819 5818 5818 5816 5815 5814 5812 5811 5809 5806 5804 5802 5799 5796 5793 5790 5787 5784 5781 5777 5773 5770
5785 5788 5792 5794 5797 5800 5803 5805 5807 5808 5810 5811 5812 5813 5814 5814 5814 5815 5815 5815 5814 5814 5813 5812 5811 5809 5808 5806 5805 5802 5800 5798 5795 5792 5789 5786 5783 5779 5776 5772 5768 5764 5760
5778 5782 5785 5788 5791 5794 5796 5798 5801 5803 5804 5805 5806 5807 5808 5808 5809 5809 5809 5809 5808 5808 5807 5806 5805 5803 5801 5800 5798 5796 5793 5791 5788 5785 5782 5778 5775 5771 5767 5763 5759 5754 5750
5771 5775 5778 5781 5784 5787 5790 5792 5794 5796 5798 5799 5800 5801 5802 5802 5803 5803 5803 5803 5802 5802 5801 5799 5798 5796 5794 5793 5791 5790 5787 5784 5781 5777 5774 5770 5767 5762 5758 5753 5749 5744 5740
5764 5767 5771 5774 5777 5780 5783 5785 5787 5789 5791 5793 5794 5795 5796 5796 5796 5796 5796 5796 5795 5795 5794 5792 5791 5789 5787 5785 5783 5781 5780 5778 5774 5770 5766 5762 5758 5753 5749 5744 5739 5734 5729
5756 5760 5763 5767 5770 5773 5775 5778 5780 5782 5784 5786 5787 5789 5789 5790 5790 5790 5790 5789 5789 5788 5787 5785 5783 5782 5780 5777 5775 5772 5769 5767 5765 5763 5758 5753 5749 5744 5739 5734 5729 5724 5719
5748 5752 5755 5759 5762 5765 5768 5771 5773 5776 5778 5779 5780 5781 5782 5783 5783 5783 5783 5782 5782 5780 5779 5778 5776 5774 5772 5770 5767 5763 5760 5756 5754 5752 5750 5745 5739 5734 5729 5724 5719 5713 5708
5740 5744 5747 5751 5754 5757 5760 5763 5766 5768 5770 5772 5773 5774 5775 5776 5776 5776 5776 5775 5774 5773 5772 5770 5768 5766 5764 5761 5758 5755 5751 5748 5743 5741 5739 5736 5731 5725 5719 5713 5708 5702 5697
5731 5735 5739 5742 5746 5749 5752 5755 5758 5761 5762 5764 5766 5767 5768 5768 5768 5768 5768 5767 5766 5765 5763 5762 5760 5758 5755 5752 5749 5745 5742 5739 5734 5730 5727 5724 5721 5716 5709 5702 5696 5690 5685